Yozetty's sites:

title views votes rating creation
?Shooting Deer 1,957 9 (4.22)  2009-10-13
?After Obama Saves the World... 80,931 818 (4.61)  2009-01-07
?Saturday Mornings with Sartre 1,485 8 (4.25)  2009-01-07
?John McCain Needs Publicity 25,244 484 (4.34)  2008-10-24
?When George Lucas Dreams... 25,823 559 (4.42)  2008-04-27
?The Democratic Destruction 10,097 357 (4.16)  2008-03-29
?Obamanable Snowman - 2008 5,146 141 (3.82)  2008-03-28
?Not For Public Consumption 2,287 44 (1.64)  2008-03-09
?Hillary Clinton gets Easy Questions 33,547 872 (4.30)  2007-12-03
?Arnold's Quaid Game 24,893 550 (4.11)  2007-09-28
?The March of Parisect 3,395 85 (3.26)  2007-09-25
?Alan Grant Has No Class 12,956 247 (3.94)  2007-09-24
?Film Summary - Hitchcock 's North by Nort... 3,921 103 (3.74)  2007-09-24
?(nsfw) Tom Cruise's Cravings 9,144 380 (4.20)  2007-07-26
?That Jurassic Park Adventure 28,965 815 (4.49)  2007-06-16
?28 Stones Later 915 14 (3.71)  2007-06-10
?Indiana Jones' Next Adventure 17,688 444 (4.26)  2007-06-02
?Mr. Oliver Twist Goes to Washington 811 14 (3.79)  2007-05-20
?Doc Ock Loves the 80's 2,455 75 (3.87)  2007-05-15
?Democratic Temptations 1,165 56 (3.75)  2007-04-21
?Chris Rock: Upvoter 6,849 305 (4.10)  2007-04-19
?(nsfw) Dr. Mario's Diagnosis 3,528 133 (3.87)  2007-04-04
?Casting Gandalf 860 8 (3.38)  2007-03-31
?Indiana's Eye-M 2,150 83 (3.92)  2007-03-31
?Sloppy Smorgasbord 5,912 302 (4.02)  2007-03-24
?Jerraptor 2,210 38 (3.71)  2007-03-13
?Natural Election 507 7 (3.57)  2007-03-11
?(nsfw) Sex in the East 7,927 296 (3.93)  2007-03-04
?Metal Gear Idol 31,173 651 (4.33)  2007-03-02
?The Face Comes 754 21 (3.57)  2007-02-24
?The Fountain of Youth is... 11,635 405 (3.97)  2007-02-19
?Adam Carolla Vs. Scientology 13,258 304 (4.12)  2007-02-11
?Rosie's New Manager 5,637 345 (4.39)  2007-02-04
?Duel of Crates 1,059 20 (3.80)  2007-02-03
?The Scientologist's Afterlife 7,800 310 (4.00)  2007-01-27
?Love 4 Turtle Dove 1,354 28 (3.75)  2007-01-27
?It's Lord Myotismon!!! 658 12 (2.83)  2007-01-21
?George Washington's Sexual Revolution 2,421 20 (3.75)  2007-01-10
?Reminder: Wear a Condom 1,034 12 (3.33)  2007-01-08
?I'm Mr. Vein 552 16 (3.44)  2007-01-04
?Dances with Windmills 1,684 26 (4.15)  2006-12-27
?Jocker Jams 785 11 (2.91)  2006-12-24
?Joker Gets Spooky 3,222 20 (3.75)  2006-12-24
?Exposing Age of Mythology 879 13 (3.31)  2006-12-15
?My Girl Solid 3 872 9 (3.44)  2006-12-08
?Skinner's Fiery Deed 5,942 316 (4.02)  2006-12-03
?Yodemo 298 7 (3.71)  2006-11-29
?Fast Food's Circle of Strife 23,000 979 (4.59)  2006-11-23
?Danzig with Wolves 2,147 18 (3.39)  2006-11-22
?Al Gore's "An Inconvenient Truth&quot... 789 12 (3.33)  2006-11-21
?Kamehameha Caterpillar 918 10 (3.20)  2006-11-15
?Velocirackbar Kitchen Infestation 1,545 71 (3.89)  2006-11-08
?Abandoned Bedroom 2,271 40 (4.25)  2006-11-05
?The Island of Iraq 1,241 10 (3.60)  2006-10-31
?Roll Call: Chosen One-01 8,404 498 (4.49)  2006-10-27
?Jurassic Park Gone Kinky - Dry Anal Rape 17,891 86 (4.27)  2006-10-17
?Bob Dole's Inappropriate Erection # 1 1,818 24 (3.63)  2006-10-15
?Homer Expresses Love 22,040 682 (4.24)  2006-10-14
?Is Ned Ryerson Right? 2,839 26 (4.15)  2006-10-14
?The Beauty of Clerks 1,160 17 (3.82)  2006-09-19
?Lincoln Supreme Final Form 2,111 14 (4.07)  2006-09-19
?Gamespot's Greg Kasavin Revealed 437 10 (2.10)  2006-09-19
?Why Brock Keeps His Eyes Closed 941 14 (3.64)  2006-09-12
?Usual Suspects Buy A Car 752 12 (3.67)  2006-08-25
?Link Masters Guitar Hero 20,498 405 (3.99)  2006-08-24
?The Muthaf*ckin Dawn of a New Muthaf*ckin Era 719 13 (3.85)  2006-08-20
?testsetest 1,883 22 (3.14)  2006-08-20
?Link Receives Personal Advice... 693 13 (3.77)  2006-07-23
?This Week on Hack... 739 10 (3.50)  2006-07-23
?What is Tim Allen... 779 11 (2.55)  2006-07-21
?Look Here for the Apartment 378 8 (3.13)  2006-06-20
?The Pope Converts 3,337 21 (3.95)  2006-06-02
?Hindu Gamer Suicide 2,076 26 (1.88)  2006-06-02
?Darth Vader has gone crazy 1,327 60 (2.65)  2006-05-24
?R.I.P. AFI - decemberunderground 1,854 21 (2.86)  2006-05-23
?SlopTit Enters... 492 16 (3.13)  2006-05-01
?Shawshank Gets a New Inmate 2,689 507 (3.57)  2006-05-01
?What'll I Do??? 617 8 (2.88)  2006-02-22
?Brian Peppers Spray 1,151 19 (3.53)  2006-02-21
?World of Warcraft = Awesome Incredible! 7,530 14 (2.86)  2006-02-19
?Dick Cheney Shooting - The Way it Really Happen... 4,482 35 (3.77)  2006-02-17
?Peppers Ann 766 11 (3.55)  2006-02-05
?Brian Peppers Next Life 764 12 (2.83)  2006-02-05
?The Brian Peppers Genetic Tree 956 17 (2.24)  2006-02-04
?Brian Peppers Under the Sea 667 12 (3.17)  2006-02-03
?Brian Peppers is Jeepers Creepers 756 12 (2.67)  2006-02-03
?Bright Eyes Yugi-Oh, Conor Oberst's tr... 2,492 17 (3.18)  2006-01-28
?Homer Simpson Ponders the Mona Lisa - Braces 7,017 43 (4.07)  2006-01-26
?Fabio Goose Disaster 11,426 15 (3.60)  2006-01-12
?South Park Ski Instructor 2,991 20 (3.90)  2006-01-09
?The Vikings Will Go Sailing No More - Culpepper Ti... 2,792 17 (3.88)  2006-01-09
?Office Space - Michael Bolton 3,332 17 (3.35)  2006-01-09
?Half Life Enters the World of Warcraft 5,830 12 (2.33)  2006-01-09
?Half Life Gets A Lesson From Teacher 3,367 20 (3.65)  2006-01-09